GFA320 UUWW-LBBG

Flight info

Callsign GFA320
Flight time N/A
Altitude 36000
Route SOTO3D SOTOG N181 LIMPI N609 BERUN P29 FORMA N978 TOVPU M987 PEXON L61 BAGRI LUGEB GOSLO T228 RUTAR RUTA5D
Aircraft A320/M-V/N

Departure

Time N/A
Airport Vnukovo International Airport (UUWW)

Arrival

Time 2026-04-30 18:23
Airport Burgas Airport (LBBG)
Time Latitude Longitude Altitude Speed Heading
2026-04-30 17:39 45.30801 29.93719 36248 ft 434 kts 222°
2026-04-30 17:42 45.06233 29.68877 36246 ft 435 kts 218°
2026-04-30 17:43 44.93549 29.57237 36244 ft 435 kts 218°
2026-04-30 17:44 44.78308 29.43335 36244 ft 435 kts 218°
2026-04-30 17:46 44.65855 29.32057 35216 ft 411 kts 219°
2026-04-30 17:47 44.56377 29.23497 32770 ft 400 kts 220°
2026-04-30 17:48 44.47135 29.15182 30139 ft 390 kts 219°
2026-04-30 17:48 44.40218 29.08965 27090 ft 399 kts 218°
2026-04-30 17:49 44.31384 29.01093 26241 ft 345 kts 218°
2026-04-30 17:50 44.24077 28.94595 26237 ft 278 kts 219°
2026-04-30 17:51 44.19582 28.90643 26099 ft 247 kts 216°
2026-04-30 17:52 44.14520 28.87694 26093 ft 284 kts 211°
2026-04-30 17:53 44.05218 28.77652 24415 ft 395 kts 214°
2026-04-30 17:54 43.95694 28.69480 25818 ft 408 kts 216°
2026-04-30 17:55 43.85737 28.60742 25734 ft 435 kts 216°
2026-04-30 17:56 43.76321 28.52641 25318 ft 424 kts 213°
2026-04-30 17:57 43.67949 28.48426 23404 ft 433 kts 197°
2026-04-30 17:58 43.59170 28.45968 21737 ft 425 kts 197°
2026-04-30 17:59 43.48179 28.41110 19718 ft 408 kts 209°
2026-04-30 18:00 43.38213 28.34510 17842 ft 401 kts 208°
2026-04-30 18:00 43.30811 28.29660 17224 ft 378 kts 208°
2026-04-30 18:01 43.26173 28.26637 16418 ft 368 kts 208°
2026-04-30 18:02 43.18945 28.21931 13180 ft 390 kts 207°
2026-04-30 18:02 43.11655 28.17189 10797 ft 385 kts 208°
2026-04-30 18:03 43.04672 28.12648 10218 ft 347 kts 208°
2026-04-30 18:04 42.98579 28.08684 10218 ft 312 kts 209°
2026-04-30 18:05 42.90871 28.03657 10215 ft 302 kts 209°
2026-04-30 18:06 42.83716 27.98066 10130 ft 295 kts 215°
2026-04-30 18:07 42.76658 27.92025 9657 ft 303 kts 214°
2026-04-30 18:08 42.71626 27.86831 9310 ft 305 kts 226°
2026-04-30 18:09 42.65527 27.78663 8119 ft 311 kts 225°
2026-04-30 18:10 42.59124 27.70137 5348 ft 304 kts 223°
2026-04-30 18:11 42.53946 27.63237 5244 ft 242 kts 223°
2026-04-30 18:11 42.50157 27.58215 5215 ft 252 kts 223°
2026-04-30 18:12 42.46452 27.53324 5220 ft 244 kts 223°
2026-04-30 18:13 42.44039 27.50139 5215 ft 241 kts 223°
2026-04-30 18:13 42.40843 27.45931 5213 ft 239 kts 223°
2026-04-30 18:14 42.38074 27.42281 5210 ft 237 kts 223°
2026-04-30 18:15 42.34562 27.37650 5202 ft 235 kts 223°
2026-04-30 18:15 42.31053 27.33039 5199 ft 232 kts 223°
2026-04-30 18:16 42.29551 27.29237 5198 ft 248 kts 272°
2026-04-30 18:16 42.31055 27.25419 5088 ft 234 kts 324°
2026-04-30 18:17 42.32355 27.24092 5022 ft 234 kts 330°
2026-04-30 18:17 42.33851 27.23322 4905 ft 230 kts 356°
2026-04-30 18:17 42.36665 27.24820 4655 ft 227 kts 45°
2026-04-30 18:18 42.37808 27.26308 4529 ft 229 kts 45°
2026-04-30 18:18 42.38958 27.27819 4385 ft 232 kts 45°
2026-04-30 18:18 42.40118 27.29342 4271 ft 231 kts 45°
2026-04-30 18:18 42.41253 27.30828 4168 ft 222 kts 45°
2026-04-30 18:19 42.42343 27.32253 3899 ft 217 kts 45°
2026-04-30 18:19 42.43418 27.33660 3727 ft 212 kts 45°
2026-04-30 18:19 42.44453 27.35014 3710 ft 200 kts 45°
2026-04-30 18:19 42.45397 27.36254 3708 ft 179 kts 45°
2026-04-30 18:20 42.46267 27.37397 3484 ft 174 kts 45°
2026-04-30 18:20 42.47134 27.38538 3179 ft 171 kts 44°
2026-04-30 18:20 42.47958 27.39620 2931 ft 170 kts 45°
2026-04-30 18:20 42.48881 27.40814 2643 ft 191 kts 44°
2026-04-30 18:21 42.49887 27.42067 2522 ft 203 kts 43°
2026-04-30 18:21 42.50987 27.43390 2240 ft 214 kts 41°
2026-04-30 18:21 42.52074 27.44670 1942 ft 201 kts 41°
2026-04-30 18:21 42.53076 27.45922 1614 ft 191 kts 42°
2026-04-30 18:22 42.53949 27.47231 1264 ft 187 kts 51°
2026-04-30 18:22 42.55559 27.49573 323 ft 169 kts 43°
2026-04-30 18:22 42.56354 27.50640 107 ft 151 kts 42°
2026-04-30 18:23 42.56953 27.51440 112 ft 114 kts 45°
2026-04-30 18:23 42.57375 27.51991 115 ft 60 kts 45°
2026-04-30 18:23 42.57558 27.52239 117 ft 0 kts 44°
2026-04-30 18:23 42.57561 27.52242 120 ft 1 kts 44°
2026-04-30 18:24 42.57599 27.52292 119 ft 8 kts 44°
2026-04-30 18:24 42.57643 27.52359 121 ft 11 kts 58°
2026-04-30 18:24 42.57661 27.52461 123 ft 12 kts 89°
2026-04-30 18:25 42.57660 27.52589 121 ft 15 kts 90°
2026-04-30 18:25 42.57502 27.52587 119 ft 19 kts 223°
2026-04-30 18:25 42.57400 27.52469 119 ft 21 kts 218°
2026-04-30 18:26 42.57124 27.52156 114 ft 30 kts 220°
2026-04-30 18:26 42.56956 27.51962 115 ft 33 kts 220°
2026-04-30 18:26 42.56787 27.51745 111 ft 34 kts 226°
2026-04-30 18:27 42.56561 27.51390 109 ft 17 kts 245°
2026-04-30 18:27 42.56580 27.51274 108 ft 11 kts 259°
2026-04-30 18:28 42.56505 27.51278 108 ft 5 kts 157°
2026-04-30 18:28 42.56482 27.51254 108 ft 6 kts 234°
2026-04-30 18:28 42.56536 27.51213 108 ft 0 kts